Regional Weather Roundup
Issued by NWS

Home | Current Version | Previous Version | Text Only | Print | Product List | Glossary Off
Versions: 1 2 3 4 5 6 7 8 9 10 11 12 13 14 15 16 17 18 19 20 21 22 23 24 25 26 27 28 29 30 31 32 33 34 35 36 37 38 39 40 41 42 43 44 45 46 47 48 49 50

267
ASUS44 KMEG 301200
RWRTN
TENNESSEE HOURLY STATE WEATHER ROUNDUP
NATIONAL WEATHER SERVICE MEMPHIS TN
700 AM CDT MON MAY 30 2016

TNZ002-004-019-021-049-052-054-088>092-301300-
WEST TENNESSEE

CITY           SKY/WX    TMP DP  RH WIND       PRES   REMARKS
MEMPHIS INTL   PTSUNNY   74  70  87 CALM      30.07R
NWS MEMPHIS      N/A     69 N/A N/A MISG        N/A
JACKSON        SUNNY     69  66  90 CALM      30.07R
DYERSBURG      SUNNY     70  66  88 CALM      30.07R
UNION CITY     SUNNY     66  66 100 CALM      30.06R
PARIS          SUNNY     66  63  88 CALM      30.08R
$$

TNZ008-025-027-028-033-062-065-066-301300-
NORTH MIDDLE TENNESSEE

CITY           SKY/WX    TMP DP  RH WIND       PRES   REMARKS
NASHVILLE      PTSUNNY   73  64  73 N3        30.06R
CLARKSVILLE    SUNNY     67  64  90 CALM      30.06R
COOKEVILLE     SUNNY     66  66 100 CALM      30.06R
CROSSVILLE     SUNNY     67  63  87 CALM      30.10R
$$

TNZ061-075-076-078-094-096-097-301300-
SOUTH MIDDLE TENNESSEE

CITY           SKY/WX    TMP DP  RH WIND       PRES   REMARKS
WINCHESTER     SUNNY     66  64  94 CALM      30.06S
SHELBYVILLE    SUNNY     70  68  94 CALM      30.06F
$$

TNZ017-018-042-046-047-301300-
NORTHEAST TENNESSEE

CITY           SKY/WX    TMP DP  RH WIND       PRES   REMARKS
TRI CITIES     MOSUNNY   63  59  87 CALM      30.09R
$$

TNZ012-013-036-069-073-074-301300-
CENTRAL EAST TENNESSEE

CITY           SKY/WX    TMP DP  RH WIND       PRES   REMARKS
KNOXVILLE      FOG       66  65  96 VRB3      30.05R VSB 1/2
OAK RIDGE      CLOUDY    65  63  93 CALM      30.07S FOG
GATLINBURG     SUNNY     63  61  94 CALM      30.06R
$$

TNZ083-085-099-301300-
SOUTHEAST TENNESSEE

CITY           SKY/WX    TMP DP  RH WIND       PRES   REMARKS
CHATTANOOGA    MOSUNNY   73  64  73 CALM      30.04R
$$

SKY/WX REPORTED AS FAIR MEANS FEW OR NO CLOUDS BELOW
12 THOUSAND FEET.





USA.gov is the U.S. government's official web portal to all federal, state and local government web resources and services.